CAPE
85 887 944 845 1087 1234 1065 989 1037 1039 1007 916 938 1145 678 701 865 917 650 587 384 280 145 98 18 316 316 366 289 186 207 227 271 238 191 147 161 177 151 117 48 31 19
248 1032 1046 842 765 796 807 911 1077 757 670 979 967 834 875 749 686 826 836 711 446 307 222 192 50 211 260 319 365 294 190 225 245 192 145 139 122 121 74 81 108 66 61
289 942 969 874 659 652 1398 1529 1045 692 537 760 899 895 803 769 817 746 707 660 470 334 170 44 41 278 386 480 212 324 237 184 130 86 55 28 71 81 97 65 65 58 61
285 728 810 843 737 776 886 949 1039 802 770 843 817 807 643 947 955 865 959 779 564 283 212 62 170 482 454 389 293 320 223 94 54 10 17 44 76 77 16 14 20 36 18
609 707 791 971 887 935 769 676 788 764 722 796 772 1078 534 1073 947 901 1015 912 721 419 235 184 351 505 565 446 426 355 204 71 21 4 11 29 49 36 12 16 13 16 61
739 559 897 1126 1095 967 898 949 1004 860 757 636 611 737 922 1108 961 937 1180 993 824 490 288 242 437 469 496 471 419 247 68 0 0 0 0 12 43 26 13 21 8 8 30
507 468 1027 1150 1073 1017 719 773 888 875 799 646 698 880 800 1344 1220 1076 1185 924 902 612 426 238 306 314 342 434 423 77 0 0 0 0 0 17 28 25 16 23 8 21 23
188 349 1218 1274 1323 1335 1100 650 426 599 935 846 469 668 1057 1303 1370 1282 1178 976 902 744 495 325 114 40 60 268 332 80 0 0 0 0 0 6 27 2 24 20 14 15 15
271 595 1405 1586 1514 1797 1531 1138 678 635 1144 967 1130 461 806 1361 1354 1306 1158 1053 991 889 634 261 80 0 1 229 373 50 0 0 0 0 0 0 1 0 25 23 8 5 12
631 1182 1685 1781 1554 2108 1950 1457 1212 717 1339 1135 505 1149 912 1155 1181 1153 1126 1046 1017 1072 832 351 105 0 0 63 314 33 0 0 0 0 0 0 0 3 25 25 8 6 6
835 1128 1734 1729 1553 1909 2072 1679 1550 1186 1216 1384 680 1438 982 1059 981 1133 1010 978 1077 909 963 627 246 9 0 0 5 16 0 0 0 0 0 0 11 20 26 26 22 18 4
767 995 1524 1535 1363 1542 2082 1480 1640 1507 1104 954 729 1332 948 1044 981 1065 931 761 929 971 975 741 131 60 0 0 0 0 0 1 0 0 0 0 17 30 32 28 31 26 32
829 942 1246 1327 1209 1196 1618 1282 1403 1307 1178 1124 707 612 1067 850 970 1064 817 798 755 788 702 767 246 34 0 0 0 0 0 0 3 0 0 10 12 10 36 43 36 36 38
1007 919 1100 1300 1137 1171 1376 1016 862 1035 946 960 828 453 619 720 591 647 596 524 498 456 357 466 194 26 0 0 0 0 0 1 0 1 14 0 10 0 36 46 51 51 41
1154 1166 1380 1349 1137 1254 1203 913 997 984 917 775 695 565 304 223 503 438 434 479 528 427 245 224 103 21 0 0 0 3 1 0 0 27 48 26 0 0 18 27 49 44 43
1276 1282 1423 1362 1225 1198 1146 1070 1067 988 794 676 670 401 626 556 416 525 495 463 441 418 310 217 97 41 0 0 0 3 7 0 1 31 76 37 12 0 21 14 47 42 38
1327 1345 1432 1464 1281 1167 1103 1209 1098 981 757 667 653 731 728 594 449 381 418 379 353 374 351 254 131 24 0 0 0 0 11 0 3 56 72 47 37 35 32 29 48 41 37
1006 1254 1347 1495 1315 1175 1055 1128 991 909 794 609 572 633 668 612 479 351 296 293 308 288 200 205 93 0 0 0 0 0 1 3 0 53 76 72 38 32 21 54 58 58 37
0 671 1224 1476 1487 1252 1118 991 813 856 804 626 429 480 602 480 327 172 151 221 213 113 109 107 35 0 0 0 0 0 5 7 12 57 48 69 52 35 56 29 43 57 38
0 0 359 1429 1562 1369 879 728 701 770 790 597 491 476 577 592 358 152 52 73 91 81 53 39 25 0 0 0 0 2 2 5 18 34 49 46 36 52 39 18 35 51 36
0 0 82 1275 1564 1299 787 813 694 727 435 388 346 370 379 402 312 155 88 53 46 61 59 25 0 0 0 0 8 13 12 20 20 23 11 29 14 56 35 19 47 39 36
0 0 140 1019 1362 1430 1173 761 553 361 158 170 180 197 177 235 246 121 90 37 35 28 35 28 24 0 0 0 15 17 36 34 23 22 34 32 13 21 15 37 32 17 25
0 0 36 864 1168 1440 1095 489 247 112 27 13 7 23 27 14 10 29 0 0 0 0 1 20 3 0 4 11 11 31 26 26 28 22 20 10 29 9 6 20 22 26 19
0 0 99 810 1126 1223 965 695 490 464 296 80 0 9 10 0 0 19 11 4 13 13 0 0 0 8 18 23 6 1 0 13 30 23 5 0 33 20 4 6 12 11 9
0 0 131 886 1144 994 959 710 508 243 149 39 24 1 0 0 0 0 2 14 16 6 0 0 5 16 15 15 11 0 0 8 0 13 0 9 4 19 5 2 0 4 4
0 5 259 937 1070 874 698 538 489 313 98 29 0 0 0 0 0 0 16 6 2 0 0 17 15 10 9 17 7 0 7 2 1 0 0 0 9 1 2 0 0 0 5
CIN
-400 -136 -100 -92 -21 -2 -3 -3 -1 -0 -0 -0 -0 -0 -0 -0 -0 -0 -0 -0 -3 -21 -58 -72 -167 -0 -0 -0 -0 -29 -34 -31 -22 -23 -43 -67 -63 -52 -44 -48 -96 -3 -0
-379 -136 -95 -98 -90 -59 -33 -15 -7 -24 -22 -3 -0 -0 -0 -1 -3 -0 -0 -0 -0 -4 -33 -38 -95 -8 -1 -0 -0 -7 -21 -25 -13 -24 -57 -64 -66 -62 -94 -83 -44 -94 -125
-355 -154 -117 -112 -129 -95 -12 -5 -24 -47 -48 -24 -2 -0 -1 -2 -0 -1 -0 -1 -1 -1 -37 -94 -96 -1 -0 -0 -2 -0 -7 -18 -36 -70 -108 -152 -114 -100 -71 -93 -96 -90 -107
-368 -215 -160 -130 -121 -97 -69 -53 -38 -52 -51 -30 -14 -3 -5 -2 -0 -0 -0 -0 -0 -11 -10 -53 -13 -0 -0 -0 -3 -1 -7 -47 -78 -47 -66 -137 -106 -98 -0 -0 -8 -78 -0
-286 -219 -164 -109 -102 -83 -93 -102 -78 -71 -78 -50 -29 -4 -28 -2 -2 -0 -0 -0 -0 -6 -8 -7 -0 -0 -0 -0 -0 -2 -30 -62 -114 -6 -15 -113 -97 -97 -0 -0 -0 -0 -101
-274 -268 -156 -93 -71 -68 -83 -63 -49 -57 -60 -83 -84 -34 -6 -0 -1 -0 -0 -0 -0 -2 -9 -4 -0 -0 -0 -0 -0 -12 -63 -1 -0 -0 -0 -4 -104 -4 -3 -2 -1 -1 -3
-279 -254 -130 -84 -71 -66 -95 -73 -57 -56 -56 -78 -48 -27 -29 -0 -0 -0 -0 -0 -0 -1 -2 -15 -0 -0 -0 -0 -0 -29 -0 -0 -0 -0 -0 -3 -1 -0 -3 -1 -1 -1 -1
-293 -254 -88 -50 -28 -17 -42 -108 -136 -91 -44 -42 -102 -48 -11 -1 -0 -0 -0 -0 -0 -0 -5 -8 -35 -81 -67 -2 -1 -36 -0 -0 -0 -0 -0 -5 -0 -0 -4 -1 -0 -1 -1
-260 -195 -79 -38 -29 -1 -1 -14 -73 -87 -12 -27 -11 -99 -37 -2 -1 -0 -0 -0 -0 -0 -1 -21 -102 -0 -13 -7 -1 -44 -0 -0 -0 -0 -0 -0 -0 -0 -2 -5 -2 -2 -1
-199 -127 -56 -37 -44 -0 -0 -5 -8 -58 -0 -7 -72 -6 -20 -8 -6 -1 -2 -0 -0 -0 -0 -13 -69 -0 -0 -49 -0 -90 -0 -0 -0 -0 -0 -0 -0 -0 -3 -3 -2 -0 -0
-184 -159 -81 -54 -51 -11 -1 -6 -4 -9 -5 -1 -47 -2 -12 -14 -21 -5 -6 -4 -0 -0 -0 -5 -18 -119 -0 -0 -91 -79 -0 -0 -0 -0 -0 -0 -0 -0 -2 -3 -3 -1 -2
-203 -154 -88 -80 -73 -44 -3 -14 -3 -6 -16 -24 -37 -3 -20 -13 -15 -10 -14 -10 -4 -1 -2 -5 -21 -49 -0 -0 -0 -0 -0 -25 -0 -0 -0 -0 -0 -0 -2 -2 -5 -3 -1
-156 -141 -105 -92 -95 -75 -39 -47 -22 -21 -20 -22 -48 -59 -16 -26 -15 -10 -26 -15 -12 -9 -10 -5 -16 -56 -0 -0 -0 -0 -0 -6 -59 -0 -0 -1 -2 -0 -1 -6 -4 -3 -2
-139 -124 -110 -97 -107 -95 -55 -62 -58 -37 -45 -35 -40 -71 -54 -37 -59 -53 -41 -39 -35 -33 -26 -17 -26 -38 -0 -0 -0 -0 -0 -50 -0 -12 -15 -0 -2 -0 -2 -3 -0 -0 -0
-80 -90 -95 -101 -103 -91 -79 -70 -56 -47 -40 -42 -36 -52 -90 -98 -59 -64 -58 -43 -39 -44 -37 -38 -31 -64 -0 -0 -0 -94 -37 -0 -0 -51 -22 -7 -0 -0 -0 -2 -0 -0 -0
-58 -73 -96 -97 -103 -96 -81 -71 -55 -52 -53 -52 -41 -39 -46 -46 -56 -46 -53 -47 -51 -48 -41 -39 -38 -61 -0 -0 -0 -109 -100 -17 -65 -59 -16 -14 -10 -0 -5 -0 -12 -0 -0
-73 -88 -106 -84 -84 -74 -59 -72 -69 -51 -66 -63 -58 -45 -42 -41 -47 -53 -50 -61 -58 -45 -34 -28 -30 -114 -0 -0 -0 -0 -106 -0 -108 -30 -13 -20 -13 -3 -0 -7 -2 -0 -0
-83 -88 -100 -85 -79 -73 -57 -72 -69 -68 -54 -53 -56 -49 -41 -43 -49 -44 -56 -54 -46 -42 -42 -33 -47 -0 -0 -0 -0 -0 -40 -124 -0 -38 -24 -25 -22 -11 -4 -1 -0 -0 -1
-0 -102 -109 -111 -89 -88 -78 -66 -73 -67 -45 -47 -57 -50 -46 -48 -58 -75 -82 -57 -60 -85 -87 -62 -56 -0 -0 -0 -0 -22 -110 -96 -68 -53 -32 -27 -19 -26 -8 -3 -3 -2 -13
-0 -0 -163 -149 -113 -102 -100 -82 -92 -81 -74 -74 -66 -55 -56 -52 -53 -96 -158 -114 -121 -130 -131 -52 -50 -0 -0 -0 -0 -48 -92 -80 -64 -44 -46 -30 -25 -13 -13 -24 -12 -12 -2
-0 -0 -211 -157 -131 -114 -87 -83 -92 -83 -110 -104 -95 -82 -82 -72 -71 -74 -104 -154 -89 -44 -44 -61 -0 -0 -0 -0 -48 -48 -58 -62 -47 -44 -48 -40 -19 -14 -17 -24 -14 -10 -3
-0 -0 -215 -183 -167 -129 -99 -111 -137 -155 -162 -139 -118 -97 -97 -72 -59 -79 -84 -102 -51 -47 -43 -51 -55 -0 -0 -0 -20 -24 -1 -14 -38 -36 -20 -12 -20 -18 -19 -15 -13 -19 -17
-0 -0 -201 -202 -187 -151 -147 -196 -203 -179 -89 -186 -172 -175 -166 -197 -80 -159 -0 -0 -0 -0 -6 -34 -17 -0 -20 -39 -47 -26 -7 -9 -23 -44 -19 -9 -16 -18 -15 -12 -22 -20 -18
-0 -0 -237 -217 -219 -192 -196 -149 -134 -118 -114 -172 -0 -203 -168 -0 -0 -101 -46 -35 -34 -34 -0 -0 -0 -15 -21 -16 -35 -50 -0 -55 -17 -17 -31 -0 -16 -27 -24 -13 -11 -26 -17
-0 -0 -236 -235 -218 -248 -194 -163 -138 -124 -147 -179 -152 -10 -0 -0 -0 -0 -9 -23 -21 -26 -0 -1 -15 -17 -17 -14 -15 -54 -3 -67 -0 -34 -15 -41 -32 -14 -8 -29 -4 -31 -24
-0 -291 -291 -252 -265 -265 -236 -201 -133 -114 -131 -159 -0 -0 -0 -0 -0 -0 -26 -25 -32 -0 -0 -17 -17 -16 -16 -9 -15 -12 -26 -14 -28 -4 -0 -4 -42 -0 -18 -0 -0 -3 -13
Wind_Speed
13 15 15 13 12 11 11 12 12 13 13 13 14 14 15 15 16 16 16 17 18 20 21 22 22 22 24 24 24 23 25 26 27 27 28 29 29 31 32 34 35 36 37
13 14 13 12 11 10 10 11 11 12 12 12 13 13 14 14 14 14 15 16 17 19 20 20 21 22 23 23 23 23 24 25 26 26 27 28 29 30 31 32 34 35 36
11 11 10 10 10 10 10 10 11 11 11 11 12 12 13 13 13 13 14 15 17 18 19 20 20 21 22 23 23 22 24 25 25 26 27 27 28 29 30 31 32 34 35
11 10 9 9 9 9 9 9 10 10 10 10 10 11 11 11 12 13 13 14 16 17 18 19 20 21 22 22 23 24 24 24 25 25 26 27 27 29 30 30 30 32 33
8 7 8 8 8 8 8 8 8 9 10 10 10 10 10 10 11 12 12 13 15 16 18 19 19 20 22 22 22 23 24 25 25 25 25 26 26 29 30 30 29 30 32
7 7 7 7 7 7 6 7 8 8 9 9 9 9 10 10 11 11 11 12 13 15 17 18 18 19 21 21 22 23 24 25 25 25 25 26 26 27 29 29 29 29 29
6 5 6 7 6 6 6 6 6 7 8 9 9 9 9 9 10 10 11 11 12 14 16 16 17 18 19 20 20 22 23 24 24 24 25 25 26 28 28 28 28 28 28
5 4 3 5 5 5 5 5 5 6 7 8 8 10 11 9 9 10 10 9 11 12 15 15 15 16 18 19 18 20 22 23 24 23 24 25 26 27 27 27 27 27 27
4 3 2 2 3 2 3 4 4 5 6 7 8 9 11 10 9 9 9 9 9 11 13 14 14 16 17 18 17 19 21 21 23 23 23 24 26 26 26 26 26 25 26
3 3 3 3 4 3 2 3 4 5 6 7 9 11 10 10 9 8 8 8 9 10 12 13 14 15 15 16 17 18 19 20 21 22 22 23 25 25 25 25 25 25 25
3 3 4 5 5 6 5 5 5 6 7 8 9 10 11 10 9 8 8 8 8 9 10 11 13 14 15 15 16 16 17 18 19 21 22 23 24 23 23 24 24 24 23
2 3 3 2 3 5 8 9 9 9 9 10 11 11 11 11 10 9 9 8 8 8 9 10 12 14 15 15 16 16 16 16 18 20 21 22 22 22 22 22 22 23 23
3 4 3 2 2 3 6 7 10 11 12 11 11 10 10 10 11 11 10 9 9 8 9 9 12 14 14 14 16 15 15 15 17 19 20 20 21 21 21 21 21 22 22
5 4 4 4 3 3 5 6 7 9 11 12 11 10 11 12 11 11 9 8 9 9 9 11 12 13 13 15 16 14 13 13 15 17 17 17 19 20 20 20 21 21 21
7 6 5 4 4 4 4 4 6 7 8 11 12 12 11 11 12 13 11 9 7 10 11 12 13 14 14 17 18 12 11 12 13 14 15 15 16 18 18 19 19 20 20
10 9 7 6 5 4 5 3 5 7 6 9 10 9 11 10 11 12 11 10 11 11 12 12 13 14 16 17 17 12 9 10 11 12 12 13 14 15 17 18 18 18 18
13 12 9 8 7 5 4 3 5 7 7 7 9 9 11 10 10 10 10 11 10 10 11 12 14 15 16 17 15 12 7 8 10 10 11 11 12 13 14 15 16 17 17
17 15 13 11 9 8 7 6 4 6 6 6 7 7 7 7 8 9 10 9 9 10 11 12 14 15 16 14 13 11 7 8 10 9 9 10 10 11 12 12 14 15 15
20 19 17 14 12 11 8 8 6 5 6 7 6 7 7 7 7 8 9 9 9 11 13 13 15 14 14 13 13 12 11 10 11 9 9 8 9 10 11 11 12 13 14
22 20 18 15 13 12 10 9 9 8 7 7 6 5 6 6 7 8 9 9 10 12 13 14 15 15 13 12 12 12 12 13 14 11 7 6 7 7 8 9 10 11 11
23 20 16 14 12 12 12 9 10 7 5 5 5 5 6 6 7 8 10 10 11 11 13 13 14 13 13 11 12 13 14 14 14 12 10 8 6 7 6 7 8 9 9
22 14 14 14 13 12 13 11 12 8 9 9 8 9 8 8 8 10 10 10 12 14 13 12 11 13 15 10 12 11 14 17 16 14 13 10 7 8 10 9 7 7 8
24 18 14 14 14 14 13 11 11 10 10 10 9 9 8 9 10 9 9 10 11 12 12 10 10 11 12 9 11 13 14 16 16 16 14 11 10 11 11 12 9 11 9
21 21 16 15 15 15 13 12 10 9 9 12 8 8 9 11 11 10 9 9 10 10 10 9 8 9 11 9 12 14 16 15 16 16 13 13 12 17 10 8 7 6 9
23 15 18 17 17 17 15 13 12 12 13 11 9 9 10 11 12 13 10 9 8 9 9 8 8 10 11 11 11 14 15 16 13 13 15 12 13 16 9 5 8 7 7
17 13 12 20 20 19 17 15 13 12 12 11 11 11 11 13 13 10 7 7 8 8 9 9 10 10 10 12 12 14 13 13 13 13 14 13 12 14 12 11 12 7 7
Wind_Direction
110 114 107 96 87 71 66 61 60 53 50 48 45 47 41 39 38 45 43 39 34 31 29 27 26 23 20 16 19 29 29 28 26 25 23 24 25 23 22 22 22 21 17
103 111 104 93 83 77 73 63 60 57 48 48 39 34 43 41 40 38 40 37 29 25 23 22 23 21 16 15 20 26 26 25 23 22 20 22 22 21 18 18 20 20 15
103 104 101 91 84 82 70 66 64 52 51 40 35 32 27 33 34 34 29 35 28 20 20 18 21 19 15 20 23 28 25 24 21 18 18 17 19 20 18 17 19 19 18
104 106 103 97 91 86 77 68 54 47 38 32 28 23 25 33 30 28 28 33 32 23 19 19 22 18 15 21 28 31 28 24 21 18 17 18 19 17 14 11 14 18 17
92 100 102 99 95 85 78 72 65 51 36 25 17 22 16 18 19 21 28 34 33 29 23 22 25 21 21 24 27 29 26 24 22 18 15 16 18 18 14 11 11 15 17
89 106 109 103 95 89 77 66 58 50 38 30 18 6 360 7 14 23 28 33 33 30 30 28 24 22 22 23 29 28 27 25 22 20 19 18 18 15 13 11 13 13 15
80 96 103 107 100 92 81 63 51 39 30 21 357 349 353 1 14 20 24 31 32 27 27 23 24 23 20 22 29 29 29 25 24 22 21 20 19 15 13 8 10 11 13
81 86 77 101 94 88 80 66 42 39 24 9 357 341 334 351 5 12 18 20 22 22 19 22 21 19 17 20 30 28 25 25 26 23 19 19 17 15 12 10 9 8 10
35 50 47 59 83 78 15 9 25 21 14 357 345 338 332 335 353 4 8 12 17 22 22 24 23 17 14 18 27 26 24 25 26 27 22 18 14 12 12 11 11 12 12
360 17 4 342 334 330 333 344 343 349 349 346 335 328 329 332 344 354 2 8 8 15 21 21 18 16 13 15 20 21 22 21 20 23 22 17 13 12 15 12 11 12 15
321 311 317 320 320 312 307 314 318 325 326 329 328 325 324 328 334 344 348 353 1 8 14 19 15 11 8 9 9 15 17 18 18 15 15 14 13 14 16 17 15 15 15
241 266 291 303 313 310 302 299 301 305 311 313 316 319 320 319 324 330 338 344 353 3 5 8 5 5 4 2 360 7 10 14 14 11 11 14 18 17 16 18 20 18 17
236 268 225 259 292 301 303 297 296 297 299 304 308 312 314 317 316 322 329 339 346 351 357 359 357 351 3 358 355 1 6 8 9 7 11 18 19 15 17 16 17 19 17
253 221 232 254 285 302 321 300 297 293 294 296 299 305 304 304 310 316 326 340 343 347 349 346 347 350 352 347 347 358 1 4 5 7 15 22 26 22 22 17 17 17 17
252 235 229 242 260 285 307 320 305 298 297 298 297 296 300 303 306 314 311 322 341 335 332 337 338 340 340 336 336 351 360 3 7 5 9 22 24 26 25 22 22 18 16
251 248 255 242 235 271 294 305 308 301 303 300 298 298 297 306 307 313 320 320 323 327 330 334 334 333 332 331 333 344 356 4 3 4 7 18 22 23 26 28 25 23 18
254 264 255 232 251 246 254 277 310 304 304 299 297 300 300 305 308 312 315 318 322 326 331 334 335 333 330 331 335 342 357 2 356 358 2 9 18 24 24 25 24 21 20
258 261 256 251 239 238 260 278 299 306 303 300 300 303 314 322 325 323 324 330 332 335 337 336 334 331 331 334 336 341 348 351 347 350 354 2 7 12 19 24 25 27 25
262 263 259 254 242 236 244 269 287 300 297 293 296 299 304 316 323 326 331 333 336 338 337 334 331 332 334 338 340 339 336 335 337 338 344 355 1 7 10 20 23 31 30
267 262 262 250 243 240 252 266 284 296 298 297 298 299 300 307 318 326 331 335 337 333 331 331 332 334 336 340 340 338 331 326 328 330 343 353 3 17 21 21 19 20 27
279 263 251 243 239 237 245 247 272 275 286 295 305 315 316 316 318 325 330 331 329 329 330 333 336 339 336 343 337 334 328 328 327 326 330 334 339 351 10 18 11 24 21
278 267 248 236 231 229 234 248 272 272 285 289 296 302 306 312 317 319 325 325 324 324 327 330 333 331 332 335 331 330 321 317 323 326 328 329 333 336 329 345 1 11 8
270 265 253 234 228 233 234 244 268 276 287 293 293 300 312 319 323 326 327 327 328 326 328 329 331 331 330 328 327 328 325 317 319 320 320 328 312 323 322 297 338 330 357
275 266 258 243 225 228 226 228 231 240 260 287 290 303 313 320 327 331 328 329 331 333 332 335 337 334 333 322 319 320 324 330 321 320 321 326 316 305 316 310 331 358 340
286 274 260 245 239 229 224 230 237 256 275 292 297 304 313 321 326 327 327 329 335 338 339 342 344 334 330 322 315 317 319 326 332 329 328 325 311 305 322 333 319 330 340
308 295 267 250 239 231 229 237 241 254 272 285 293 300 310 318 325 331 342 340 345 348 349 346 340 336 331 322 318 314 319 326 328 327 329 327 317 308 319 316 309 321 333